"read_dt","SO2 (ppb)","flags","PMT voltage (V)","lamp voltage (V)","lamp intensity (Hz)","internal temp (C)","react chamber temp (C)","sample flow (l/min)","pres (mmHg)","SO2 bkg (ppb)","SO2 coefficient"
2015-05-03 00:00:00,1739E-3,5C000000,-0724,0834,12198,027.3,045.4,0.478,742.6,01.18,0.508
2015-05-03 00:01:00,1736E-3,5C000000,-0724,0834,12183,027.3,045.4,0.479,742.6,01.18,0.508
2015-05-03 00:02:00,1748E-3,5C000000,-0724,0834,12152,027.3,045.4,0.479,742.6,01.18,0.508
2015-05-03 00:03:00,1661E-3,5C000000,-0724,0834,12158,027.3,045.4,0.479,742.6,01.18,0.508
2015-05-03 00:04:00,1732E-3,5C000000,-0724,0835,12255,027.3,045.4,0.478,742.7,01.18,0.508
2015-05-03 00:05:00,1735E-3,5C000000,-0724,0835,12154,027.2,045.4,0.479,742.7,01.18,0.508
2015-05-03 00:06:00,1846E-3,5C000000,-0724,0835,12073,027.2,045.4,0.479,742.7,01.18,0.508
2015-05-03 00:07:00,1813E-3,5C000000,-0724,0834,12214,027.1,045.4,0.478,742.7,01.18,0.508
2015-05-03 00:08:00,1648E-3,5C000000,-0724,0835,12211,027.0,045.4,0.479,742.7,01.18,0.508
2015-05-03 00:09:00,1711E-3,5C000000,-0724,0833,12109,026.9,045.4,0.479,742.7,01.18,0.508
2015-05-03 00:10:00,1738E-3,5C000000,-0724,0834,12223,026.8,045.4,0.479,742.7,01.18,0.508
2015-05-03 00:11:00,1689E-3,5C000000,-0724,0834,12040,026.6,045.4,0.479,742.8,01.18,0.508
2015-05-03 00:12:00,1783E-3,5C000000,-0724,0833,12195,026.5,045.4,0.479,742.8,01.18,0.508
2015-05-03 00:13:00,1700E-3,5C000000,-0724,0833,12071,026.4,045.4,0.480,742.8,01.18,0.508
2015-05-03 00:14:00,1733E-3,5C000000,-0724,0834,12201,026.3,045.4,0.480,742.8,01.18,0.508
2015-05-03 00:15:00,1741E-3,5C000000,-0724,0835,12145,026.2,045.4,0.480,742.8,01.18,0.508
2015-05-03 00:16:00,1745E-3,5C000000,-0724,0834,12214,026.1,045.4,0.480,742.8,01.18,0.508
2015-05-03 00:17:00,1729E-3,5C000000,-0724,0833,12222,026.1,045.4,0.480,742.8,01.18,0.508
2015-05-03 00:18:00,1640E-3,5C000000,-0724,0834,12214,026.0,045.4,0.480,742.8,01.18,0.508
2015-05-03 00:19:00,1704E-3,5C000000,-0724,0834,12189,026.1,045.4,0.480,742.8,01.18,0.508
2015-05-03 00:20:00,1607E-3,5C000000,-0724,0834,12123,026.2,045.4,0.481,742.8,01.18,0.508
2015-05-03 00:21:00,1741E-3,5C000000,-0724,0834,12222,026.3,045.4,0.480,742.8,01.18,0.508
2015-05-03 00:22:00,1707E-3,5C000000,-0724,0834,12110,026.4,045.4,0.480,742.8,01.18,0.508
2015-05-03 00:23:00,1843E-3,5C000000,-0724,0835,12240,026.5,045.4,0.480,742.8,01.18,0.508
2015-05-03 00:24:00,1756E-3,5C000000,-0724,0834,12237,026.7,045.4,0.480,742.8,01.18,0.508
2015-05-03 00:25:00,1704E-3,5C000000,-0724,0834,12038,026.8,045.4,0.480,742.8,01.18,0.508
2015-05-03 00:26:00,1842E-3,5C000000,-0724,0834,12091,026.9,045.4,0.480,742.8,01.18,0.508
2015-05-03 00:27:00,1628E-3,5C000000,-0724,0835,12033,026.9,045.4,0.480,742.8,01.18,0.508
2015-05-03 00:28:00,1725E-3,5C000000,-0724,0834,11991,027.0,045.4,0.479,742.8,01.18,0.508
2015-05-03 00:29:00,1787E-3,5C000000,-0724,0835,12133,027.0,045.4,0.479,742.8,01.18,0.508
2015-05-03 00:30:00,1715E-3,5C000000,-0724,0836,12055,027.1,045.4,0.479,742.8,01.18,0.508
2015-05-03 00:31:00,1759E-3,5C000000,-0724,0836,12318,027.1,045.4,0.479,742.8,01.18,0.508
2015-05-03 00:32:00,1753E-3,5C000000,-0724,0835,12103,027.1,045.4,0.479,742.8,01.18,0.508
2015-05-03 00:33:00,1682E-3,5C000000,-0724,0834,12078,027.1,045.4,0.479,742.8,01.18,0.508
2015-05-03 00:34:00,1612E-3,5C000000,-0724,0835,12186,027.1,045.4,0.479,742.8,01.18,0.508
2015-05-03 00:35:00,1617E-3,5C000000,-0724,0835,12285,027.1,045.4,0.479,742.8,01.18,0.508
2015-05-03 00:36:00,1753E-3,5C000000,-0724,0834,12156,027.1,045.4,0.479,742.8,01.18,0.508
2015-05-03 00:37:00,1838E-3,5C000000,-0724,0834,12083,027.1,045.4,0.479,742.8,01.18,0.508
2015-05-03 00:38:00,1730E-3,5C000000,-0724,0834,12182,027.1,045.4,0.479,742.8,01.18,0.508
2015-05-03 00:39:00,1909E-3,5C000000,-0724,0835,12025,027.1,045.4,0.479,742.8,01.18,0.508
2015-05-03 00:40:00,1838E-3,5C000000,-0724,0834,12062,027.1,045.4,0.479,742.8,01.18,0.508
2015-05-03 00:41:00,1714E-3,5C000000,-0724,0834,12177,027.0,045.4,0.479,742.8,01.18,0.508
2015-05-03 00:42:00,1764E-3,5C000000,-0724,0835,12175,027.0,045.4,0.479,742.8,01.18,0.508
2015-05-03 00:43:00,1782E-3,5C000000,-0724,0834,12294,027.1,045.4,0.479,742.8,01.18,0.508
2015-05-03 00:44:00,1780E-3,5C000000,-0724,0835,12098,027.0,045.4,0.479,742.8,01.18,0.508
2015-05-03 00:45:00,1710E-3,5C000000,-0724,0834,12282,027.0,045.4,0.479,742.8,01.18,0.508
2015-05-03 00:46:00,1777E-3,5C000000,-0724,0834,12170,027.1,045.4,0.479,742.8,01.18,0.508
2015-05-03 00:47:00,1717E-3,5C000000,-0724,0835,12284,027.1,045.4,0.479,742.8,01.18,0.508
2015-05-03 00:48:00,1736E-3,5C000000,-0724,0835,12119,027.1,045.4,0.479,742.8,01.18,0.508
2015-05-03 00:49:00,1776E-3,5C000000,-0724,0834,12143,027.1,045.4,0.479,742.8,01.18,0.508
2015-05-03 00:50:00,1717E-3,5C000000,-0724,0834,12206,027.1,045.4,0.479,742.8,01.18,0.508
2015-05-03 00:51:00,1794E-3,5C000000,-0724,0835,12154,027.1,045.4,0.479,742.8,01.18,0.508
2015-05-03 00:52:00,1697E-3,5C000000,-0724,0834,12088,027.1,045.5,0.479,742.8,01.18,0.508
2015-05-03 00:53:00,1755E-3,5C000000,-0724,0833,12242,027.1,045.4,0.479,742.8,01.18,0.508
2015-05-03 00:54:00,1773E-3,5C000000,-0724,0834,12196,027.1,045.4,0.479,742.8,01.18,0.508
2015-05-03 00:55:00,1840E-3,5C000000,-0724,0834,12150,027.1,045.4,0.479,742.8,01.18,0.508
2015-05-03 00:56:00,1629E-3,5C000000,-0724,0835,12110,027.1,045.4,0.479,742.8,01.18,0.508
2015-05-03 00:57:00,1589E-3,5C000000,-0724,0834,12142,027.1,045.4,0.479,742.9,01.18,0.508
2015-05-03 00:58:00,1838E-3,5C000000,-0724,0835,12227,027.1,045.4,0.479,742.8,01.18,0.508
2015-05-03 00:59:00,1747E-3,5C000000,-0724,0834,12183,027.0,045.4,0.479,742.9,01.18,0.508
2015-05-03 01:00:00,1626E-3,5C000000,-0724,0834,12221,027.0,045.4,0.479,742.8,01.18,0.508
2015-05-03 01:01:00,1780E-3,5C000000,-0724,0834,12178,027.0,045.4,0.479,742.8,01.18,0.508
2015-05-03 01:02:00,1825E-3,5C000000,-0724,0834,12228,027.0,045.4,0.479,742.8,01.18,0.508
2015-05-03 01:03:00,1701E-3,5C000000,-0724,0835,12164,027.0,045.4,0.479,742.8,01.18,0.508
2015-05-03 01:04:00,1728E-3,5C000000,-0724,0834,12116,027.0,045.4,0.479,742.8,01.18,0.508
2015-05-03 01:05:00,1721E-3,5C000000,-0724,0834,12180,027.1,045.4,0.479,742.8,01.18,0.508
2015-05-03 01:06:00,1814E-3,5C000000,-0724,0835,12197,027.1,045.4,0.479,742.8,01.18,0.508
2015-05-03 01:07:00,1795E-3,5C000000,-0724,0834,12160,027.1,045.4,0.479,742.8,01.18,0.508
2015-05-03 01:08:00,1738E-3,5C000000,-0724,0834,12224,027.1,045.4,0.479,742.8,01.18,0.508
2015-05-03 01:09:00,1847E-3,5C000000,-0724,0834,12310,027.1,045.4,0.479,742.8,01.18,0.508
2015-05-03 01:10:00,1675E-3,5C000000,-0724,0835,12240,027.1,045.4,0.479,742.8,01.18,0.508
2015-05-03 01:11:00,1703E-3,5C000000,-0724,0834,12256,027.1,045.4,0.479,742.8,01.18,0.508
2015-05-03 01:12:00,1608E-3,5C000000,-0724,0835,12223,027.1,045.4,0.479,742.8,01.18,0.508
2015-05-03 01:13:00,1873E-3,5C000000,-0724,0834,11943,027.1,045.4,0.479,742.8,01.18,0.508
2015-05-03 01:14:00,1734E-3,5C000000,-0724,0834,12024,027.1,045.4,0.479,742.9,01.18,0.508
2015-05-03 01:15:00,1867E-3,5C000000,-0724,0833,12089,027.1,045.4,0.479,742.9,01.18,0.508
2015-05-03 01:16:00,1754E-3,5C000000,-0724,0833,12221,027.1,045.4,0.478,742.9,01.18,0.508
2015-05-03 01:17:00,1749E-3,5C000000,-0724,0834,12399,027.1,045.4,0.479,742.9,01.18,0.508
2015-05-03 01:18:00,1938E-3,5C000000,-0724,0834,12157,027.0,045.4,0.479,742.9,01.18,0.508
2015-05-03 01:19:00,1642E-3,5C000000,-0724,0834,12166,027.1,045.4,0.479,742.9,01.18,0.508
2015-05-03 01:20:00,1770E-3,5C000000,-0724,0834,11898,027.1,045.4,0.479,742.9,01.18,0.508
2015-05-03 01:21:00,1802E-3,5C000000,-0724,0834,12124,027.1,045.4,0.479,742.9,01.18,0.508
2015-05-03 01:22:00,1826E-3,5C000000,-0724,0834,12141,027.1,045.4,0.479,742.9,01.18,0.508
2015-05-03 01:23:00,1795E-3,5C000000,-0724,0835,12195,027.1,045.4,0.479,742.9,01.18,0.508
2015-05-03 01:24:00,1862E-3,5C000000,-0724,0834,12170,027.1,045.4,0.479,742.8,01.18,0.508
2015-05-03 01:25:00,1850E-3,5C000000,-0724,0835,12107,027.1,045.4,0.479,742.8,01.18,0.508
2015-05-03 01:26:00,1742E-3,5C000000,-0724,0834,12229,027.1,045.4,0.478,742.8,01.18,0.508
2015-05-03 01:27:00,1688E-3,5C000000,-0724,0835,12214,027.2,045.4,0.479,742.8,01.18,0.508
2015-05-03 01:28:00,1780E-3,5C000000,-0724,0835,12242,027.2,045.4,0.479,742.8,01.18,0.508
2015-05-03 01:29:00,1790E-3,5C000000,-0724,0834,12089,027.2,045.4,0.478,742.8,01.18,0.508
2015-05-03 01:30:00,1794E-3,5C000000,-0724,0835,12153,027.2,045.4,0.479,742.8,01.18,0.508
2015-05-03 01:31:00,1821E-3,5C000000,-0724,0834,12235,027.2,045.4,0.479,742.8,01.18,0.508
2015-05-03 01:32:00,1817E-3,5C000000,-0724,0835,12264,027.1,045.4,0.479,742.8,01.18,0.508
2015-05-03 01:33:00,1761E-3,5C000000,-0724,0834,12148,027.2,045.4,0.479,742.8,01.18,0.508
2015-05-03 01:34:00,1651E-3,5C000000,-0724,0834,12215,027.1,045.4,0.479,742.8,01.18,0.508
2015-05-03 01:35:00,1684E-3,5C000000,-0724,0835,12151,027.1,045.4,0.479,742.8,01.18,0.508
2015-05-03 01:36:00,1794E-3,5C000000,-0724,0834,12114,027.0,045.4,0.479,742.8,01.18,0.508
2015-05-03 01:37:00,1695E-3,5C000000,-0724,0833,12077,027.0,045.4,0.479,742.8,01.18,0.508
2015-05-03 01:38:00,1797E-3,5C000000,-0724,0834,12178,026.8,045.4,0.479,742.8,01.18,0.508
2015-05-03 01:39:00,1719E-3,5C000000,-0724,0833,12114,026.7,045.4,0.479,742.9,01.18,0.508
2015-05-03 01:40:00,1695E-3,5C000000,-0724,0834,12265,026.6,045.4,0.479,742.9,01.18,0.508
2015-05-03 01:41:00,1691E-3,5C000000,-0724,0833,12176,026.5,045.4,0.479,742.9,01.18,0.508
2015-05-03 01:42:00,1735E-3,5C000000,-0724,0834,12166,026.3,045.4,0.480,742.9,01.18,0.508
2015-05-03 01:43:00,1716E-3,5C000000,-0724,0834,12118,026.3,045.4,0.480,742.9,01.18,0.508
2015-05-03 01:44:00,1641E-3,5C000000,-0724,0834,12152,026.2,045.4,0.480,742.9,01.18,0.508
2015-05-03 01:45:00,1832E-3,5C000000,-0724,0833,12173,026.2,045.4,0.480,742.9,01.18,0.508
2015-05-03 01:46:00,1742E-3,5C000000,-0724,0833,12226,026.1,045.4,0.480,742.9,01.18,0.508
2015-05-03 01:47:00,1721E-3,5C000000,-0724,0834,12151,026.1,045.4,0.480,742.9,01.18,0.508
2015-05-03 01:48:00,1854E-3,5C000000,-0724,0834,12223,026.0,045.4,0.480,742.9,01.18,0.508
2015-05-03 01:49:00,1864E-3,5C000000,-0724,0834,12067,025.9,045.4,0.481,742.9,01.18,0.508
2015-05-03 01:50:00,1621E-3,5C000000,-0724,0834,12066,025.9,045.4,0.481,742.9,01.18,0.508
2015-05-03 01:51:00,1660E-3,5C000000,-0724,0833,12260,025.9,045.4,0.480,742.9,01.18,0.508
2015-05-03 01:52:00,1706E-3,5C000000,-0724,0834,12174,025.9,045.4,0.481,742.9,01.18,0.508
2015-05-03 01:53:00,1699E-3,5C000000,-0724,0834,12105,025.8,045.4,0.481,742.9,01.18,0.508
2015-05-03 01:54:00,1699E-3,5C000000,-0724,0833,12137,026.0,045.4,0.480,742.9,01.18,0.508
2015-05-03 01:55:00,1702E-3,5C000000,-0724,0834,12159,026.1,045.4,0.480,742.9,01.18,0.508
2015-05-03 01:56:00,1834E-3,5C000000,-0724,0834,12153,026.2,045.4,0.481,742.9,01.18,0.508
2015-05-03 01:57:00,1607E-3,5C000000,-0724,0834,12199,026.3,045.4,0.481,742.8,01.18,0.508
2015-05-03 01:58:00,1827E-3,5C000000,-0724,0834,12120,026.5,045.4,0.480,742.8,01.18,0.508
2015-05-03 01:59:00,1841E-3,5C000000,-0724,0833,12157,026.6,045.4,0.480,742.8,01.18,0.508
2015-05-03 02:00:00,1647E-3,5C000000,-0724,0834,12231,026.6,045.4,0.480,742.8,01.18,0.508
2015-05-03 02:01:00,1672E-3,5C000000,-0724,0835,12193,026.7,045.4,0.480,742.8,01.18,0.508
2015-05-03 02:02:00,1817E-3,5C000000,-0724,0834,12270,026.8,045.4,0.480,742.8,01.18,0.508
2015-05-03 02:03:00,1809E-3,5C000000,-0724,0835,12071,026.8,045.4,0.480,742.8,01.18,0.508
2015-05-03 02:04:00,1781E-3,5C000000,-0724,0834,12145,026.8,045.4,0.480,742.8,01.18,0.508
2015-05-03 02:05:00,1733E-3,5C000000,-0724,0834,12160,026.8,045.4,0.480,742.9,01.18,0.508
2015-05-03 02:06:00,1744E-3,5C000000,-0724,0835,12120,026.8,045.4,0.479,742.9,01.18,0.508
2015-05-03 02:07:00,1758E-3,5C000000,-0724,0835,12287,026.9,045.4,0.479,742.9,01.18,0.508
2015-05-03 02:08:00,1897E-3,5C000000,-0724,0834,12284,026.9,045.4,0.479,742.9,01.18,0.508
2015-05-03 02:09:00,1879E-3,5C000000,-0724,0834,12184,026.9,045.4,0.479,742.9,01.18,0.508
2015-05-03 02:10:00,1729E-3,5C000000,-0724,0834,12224,026.9,045.4,0.479,742.9,01.18,0.508
2015-05-03 02:11:00,1625E-3,5C000000,-0724,0834,12060,026.9,045.4,0.479,742.9,01.18,0.508
2015-05-03 02:12:00,1802E-3,5C000000,-0724,0835,12163,027.0,045.4,0.479,742.9,01.18,0.508
2015-05-03 02:13:00,1686E-3,5C000000,-0724,0834,12172,027.0,045.4,0.479,742.9,01.18,0.508
2015-05-03 02:14:00,1726E-3,5C000000,-0724,0835,12238,027.0,045.4,0.479,742.9,01.18,0.508
2015-05-03 02:15:00,1722E-3,5C000000,-0724,0835,12312,027.0,045.4,0.479,742.8,01.18,0.508
2015-05-03 02:16:00,1734E-3,5C000000,-0724,0835,12176,027.1,045.4,0.479,742.8,01.18,0.508
2015-05-03 02:17:00,1744E-3,5C000000,-0724,0834,12126,027.1,045.4,0.479,742.8,01.18,0.508
2015-05-03 02:18:00,1803E-3,5C000000,-0724,0835,12138,027.1,045.4,0.479,742.8,01.18,0.508
2015-05-03 02:19:00,1654E-3,5C000000,-0724,0834,12144,027.1,045.4,0.479,742.8,01.18,0.508
2015-05-03 02:20:00,1754E-3,5C000000,-0724,0835,11986,027.1,045.4,0.479,742.9,01.18,0.508
2015-05-03 02:21:00,1764E-3,5C000000,-0724,0834,12250,027.1,045.4,0.479,742.9,01.18,0.508
2015-05-03 02:22:00,1663E-3,5C000000,-0724,0834,12128,027.1,045.4,0.479,742.9,01.18,0.508
2015-05-03 02:23:00,1767E-3,5C000000,-0724,0835,12052,027.0,045.4,0.478,742.9,01.18,0.508
2015-05-03 02:24:00,1748E-3,5C000000,-0724,0835,12238,027.0,045.4,0.479,742.9,01.18,0.508
2015-05-03 02:25:00,1839E-3,5C000000,-0724,0834,12212,026.9,045.4,0.479,742.9,01.18,0.508
2015-05-03 02:26:00,1758E-3,5C000000,-0724,0834,12290,026.9,045.4,0.479,742.9,01.18,0.508
2015-05-03 02:27:00,1691E-3,5C000000,-0724,0834,12206,026.7,045.4,0.479,742.9,01.18,0.508
2015-05-03 02:28:00,1774E-3,5C000000,-0724,0834,12250,026.6,045.4,0.479,742.9,01.18,0.508
2015-05-03 02:29:00,1733E-3,5C000000,-0724,0833,12166,026.5,045.4,0.480,743.0,01.18,0.508
2015-05-03 02:30:00,1843E-3,5C000000,-0724,0833,12046,026.4,045.4,0.480,742.9,01.18,0.508
2015-05-03 02:31:00,1814E-3,5C000000,-0724,0834,12070,026.3,045.4,0.480,742.9,01.18,0.508
2015-05-03 02:32:00,1864E-3,5C000000,-0724,0834,12194,026.2,045.4,0.480,742.9,01.18,0.508
2015-05-03 02:33:00,1681E-3,5C000000,-0724,0834,12158,026.2,045.4,0.480,742.9,01.18,0.508
2015-05-03 02:34:00,1783E-3,5C000000,-0724,0833,12277,026.1,045.4,0.480,742.9,01.18,0.508
2015-05-03 02:35:00,1791E-3,5C000000,-0724,0834,12247,026.1,045.4,0.480,742.9,01.18,0.508
2015-05-03 02:36:00,1724E-3,5C000000,-0724,0833,12168,026.0,045.4,0.480,743.0,01.18,0.508
2015-05-03 02:37:00,1789E-3,5C000000,-0724,0834,12055,026.0,045.4,0.480,743.0,01.18,0.508
2015-05-03 02:38:00,1778E-3,5C000000,-0724,0834,12208,025.9,045.4,0.481,743.0,01.18,0.508
2015-05-03 02:39:00,1836E-3,5C000000,-0724,0834,12124,025.9,045.4,0.481,743.0,01.18,0.508
2015-05-03 02:40:00,1773E-3,5C000000,-0724,0834,12068,025.9,045.4,0.480,743.0,01.18,0.508
2015-05-03 02:41:00,1731E-3,5C000000,-0724,0834,12235,025.8,045.4,0.481,743.0,01.18,0.508
2015-05-03 02:42:00,1875E-3,5C000000,-0724,0834,12202,025.8,045.4,0.481,743.0,01.18,0.508
2015-05-03 02:43:00,1822E-3,5C000000,-0724,0834,12228,025.7,045.4,0.481,743.0,01.18,0.508
2015-05-03 02:44:00,1694E-3,5C000000,-0724,0834,12198,025.7,045.4,0.480,743.0,01.18,0.508
2015-05-03 02:45:00,1691E-3,5C000000,-0724,0833,12180,025.7,045.4,0.481,743.0,01.18,0.508
2015-05-03 02:46:00,1883E-3,5C000000,-0724,0834,12082,025.7,045.4,0.481,743.0,01.18,0.508
2015-05-03 02:47:00,1742E-3,5C000000,-0724,0834,12168,025.7,045.4,0.481,743.0,01.18,0.508
2015-05-03 02:48:00,1709E-3,5C000000,-0724,0834,12105,025.8,045.4,0.481,743.0,01.18,0.508
2015-05-03 02:49:00,1682E-3,5C000000,-0724,0835,12327,025.9,045.4,0.481,742.9,01.18,0.508
2015-05-03 02:50:00,1694E-3,5C000000,-0724,0834,12022,026.1,045.4,0.481,742.9,01.18,0.508
2015-05-03 02:51:00,1707E-3,5C000000,-0724,0834,12197,026.2,045.4,0.481,742.9,01.18,0.508
2015-05-03 02:52:00,1720E-3,5C000000,-0724,0834,12107,026.4,045.4,0.480,742.9,01.18,0.508
2015-05-03 02:53:00,1721E-3,5C000000,-0724,0833,12211,026.5,045.4,0.480,742.9,01.18,0.508
2015-05-03 02:54:00,1741E-3,5C000000,-0724,0833,12191,026.6,045.4,0.480,742.9,01.18,0.508
2015-05-03 02:55:00,1949E-3,5C000000,-0724,0834,12198,026.6,045.4,0.480,742.9,01.18,0.508
2015-05-03 02:56:00,1663E-3,5C000000,-0724,0835,11981,026.7,045.4,0.480,742.9,01.18,0.508
2015-05-03 02:57:00,1684E-3,5C000000,-0724,0834,12161,026.8,045.4,0.480,742.9,01.18,0.508
2015-05-03 02:58:00,1852E-3,5C000000,-0724,0834,12179,026.8,045.4,0.480,742.9,01.18,0.508
2015-05-03 02:59:00,1792E-3,5C000000,-0724,0834,12150,026.8,045.4,0.480,742.9,01.18,0.508
2015-05-03 03:00:00,1782E-3,5C000000,-0724,0834,12074,026.9,045.4,0.480,742.9,01.18,0.508
2015-05-03 03:01:00,1878E-3,5C000000,-0724,0834,12140,026.9,045.4,0.479,742.9,01.18,0.508
2015-05-03 03:02:00,1682E-3,5C000000,-0724,0834,12036,027.0,045.4,0.479,742.9,01.18,0.508
2015-05-03 03:03:00,1816E-3,5C000000,-0724,0834,12295,027.0,045.4,0.479,742.9,01.18,0.508
2015-05-03 03:04:00,1907E-3,5C000000,-0724,0834,12207,027.0,045.4,0.479,742.9,01.18,0.508
2015-05-03 03:05:00,1615E-3,5C000000,-0724,0833,12133,027.1,045.4,0.479,742.9,01.18,0.508
2015-05-03 03:06:00,1713E-3,5C000000,-0724,0835,12244,027.1,045.4,0.479,742.9,01.18,0.508
2015-05-03 03:07:00,1769E-3,5C000000,-0724,0835,12124,027.1,045.4,0.479,742.9,01.18,0.508
2015-05-03 03:08:00,1742E-3,5C000000,-0724,0834,12276,027.1,045.4,0.479,742.9,01.18,0.508
2015-05-03 03:09:00,1696E-3,5C000000,-0724,0834,12295,027.1,045.4,0.479,742.9,01.18,0.508
2015-05-03 03:10:00,1672E-3,5C000000,-0724,0834,12094,027.1,045.4,0.479,742.9,01.18,0.508
2015-05-03 03:11:00,1725E-3,5C000000,-0724,0833,12134,027.1,045.4,0.479,743.0,01.18,0.508
2015-05-03 03:12:00,1806E-3,5C000000,-0724,0835,12143,027.0,045.4,0.479,742.9,01.18,0.508
2015-05-03 03:13:00,1714E-3,5C000000,-0724,0834,12158,027.0,045.4,0.479,742.9,01.18,0.508
2015-05-03 03:14:00,1794E-3,5C000000,-0724,0834,12143,026.9,045.4,0.479,742.9,01.18,0.508
2015-05-03 03:15:00,1694E-3,5C000000,-0724,0834,12133,026.8,045.4,0.479,742.9,01.18,0.508
2015-05-03 03:16:00,1583E-3,5C000000,-0724,0833,12177,026.7,045.4,0.479,743.0,01.18,0.508
2015-05-03 03:17:00,1739E-3,5C000000,-0724,0834,12368,026.6,045.4,0.480,743.0,01.18,0.508
2015-05-03 03:18:00,1743E-3,5C000000,-0724,0833,12238,026.5,045.4,0.479,743.0,01.18,0.508
2015-05-03 03:19:00,1883E-3,5C000000,-0724,0834,12105,026.4,045.4,0.480,743.0,01.18,0.508
2015-05-03 03:20:00,1714E-3,5C000000,-0724,0833,12097,026.3,045.4,0.480,743.0,01.18,0.508
2015-05-03 03:21:00,1764E-3,5C000000,-0724,0834,12237,026.3,045.4,0.480,743.0,01.18,0.508
2015-05-03 03:22:00,1593E-3,5C000000,-0724,0833,12017,026.2,045.4,0.480,743.0,01.18,0.508
2015-05-03 03:23:00,1785E-3,5C000000,-0724,0833,12208,026.1,045.4,0.481,743.1,01.18,0.508
2015-05-03 03:24:00,1745E-3,5C000000,-0724,0834,12124,026.1,045.4,0.480,743.1,01.18,0.508
2015-05-03 03:25:00,1790E-3,5C000000,-0724,0833,11950,026.0,045.4,0.480,743.1,01.18,0.508
2015-05-03 03:26:00,1674E-3,5C000000,-0724,0834,12163,026.0,045.4,0.481,743.1,01.18,0.508
2015-05-03 03:27:00,1728E-3,5C000000,-0724,0834,12109,025.9,045.4,0.480,743.1,01.18,0.508
2015-05-03 03:28:00,1783E-3,5C000000,-0724,0834,12278,025.9,045.4,0.480,743.1,01.18,0.508
2015-05-03 03:29:00,1728E-3,5C000000,-0724,0833,12158,025.9,045.4,0.481,743.1,01.18,0.508
2015-05-03 03:30:00,1828E-3,5C000000,-0724,0833,12111,025.8,045.4,0.481,743.1,01.18,0.508
2015-05-03 03:31:00,1663E-3,5C000000,-0724,0834,12184,025.8,045.4,0.480,743.1,01.18,0.508
2015-05-03 03:32:00,1817E-3,5C000000,-0724,0834,12303,025.8,045.4,0.481,743.1,01.18,0.508
2015-05-03 03:33:00,1623E-3,5C000000,-0724,0833,12323,025.7,045.4,0.481,743.1,01.18,0.508
2015-05-03 03:34:00,1808E-3,5C000000,-0724,0834,12231,025.7,045.4,0.481,743.1,01.18,0.508
2015-05-03 03:35:00,1608E-3,5C000000,-0724,0833,12187,025.7,045.4,0.481,743.1,01.18,0.508
2015-05-03 03:36:00,1686E-3,5C000000,-0724,0834,12052,025.7,045.4,0.481,743.1,01.18,0.508
2015-05-03 03:37:00,1749E-3,5C000000,-0724,0834,12172,025.7,045.4,0.481,743.1,01.18,0.508
2015-05-03 03:38:00,1903E-3,5C000000,-0724,0833,11954,025.7,045.4,0.481,743.1,01.18,0.508
2015-05-03 03:39:00,1813E-3,5C000000,-0724,0834,12264,025.7,045.4,0.481,743.1,01.18,0.508
2015-05-03 03:40:00,1727E-3,5C000000,-0724,0833,12205,025.6,045.4,0.481,743.1,01.18,0.508
2015-05-03 03:41:00,1701E-3,5C000000,-0724,0834,12158,025.6,045.4,0.481,743.1,01.18,0.508
2015-05-03 03:42:00,1804E-3,5C000000,-0724,0833,12327,025.6,045.4,0.481,743.1,01.18,0.508
2015-05-03 03:43:00,1664E-3,5C000000,-0724,0834,12266,025.6,045.4,0.481,743.1,01.18,0.508
2015-05-03 03:44:00,1842E-3,5C000000,-0724,0833,11979,025.6,045.4,0.481,743.1,01.18,0.508
2015-05-03 03:45:00,1734E-3,5C000000,-0724,0834,12214,025.6,045.4,0.481,743.1,01.18,0.508
2015-05-03 03:46:00,1750E-3,5C000000,-0724,0834,12225,025.6,045.4,0.481,743.1,01.18,0.508
2015-05-03 03:47:00,1678E-3,5C000000,-0724,0834,12230,025.5,045.4,0.481,743.1,01.18,0.508
2015-05-03 03:48:00,1851E-3,5C000000,-0724,0834,12189,025.5,045.4,0.481,743.1,01.18,0.508
2015-05-03 03:49:00,1836E-3,5C000000,-0724,0834,12060,025.5,045.4,0.481,743.1,01.18,0.508
2015-05-03 03:50:00,1757E-3,5C000000,-0724,0834,12298,025.5,045.4,0.481,743.1,01.18,0.508
2015-05-03 03:51:00,1752E-3,5C000000,-0724,0834,12281,025.5,045.4,0.481,743.1,01.18,0.508
2015-05-03 03:52:00,1794E-3,5C000000,-0724,0833,12178,025.5,045.4,0.481,743.1,01.18,0.508
2015-05-03 03:53:00,1749E-3,5C000000,-0724,0833,12198,025.5,045.4,0.481,743.1,01.18,0.508
2015-05-03 03:54:00,1854E-3,5C000000,-0724,0834,12093,025.5,045.4,0.481,743.1,01.18,0.508
2015-05-03 03:55:00,1734E-3,5C000000,-0724,0833,12057,025.5,045.4,0.481,743.1,01.18,0.508
2015-05-03 03:56:00,1839E-3,5C000000,-0724,0834,12204,025.5,045.4,0.481,743.1,01.18,0.508
2015-05-03 03:57:00,1758E-3,5C000000,-0724,0834,12130,025.5,045.4,0.481,743.1,01.18,0.508
2015-05-03 03:58:00,1794E-3,5C000000,-0724,0833,12238,025.5,045.4,0.481,743.1,01.18,0.508
2015-05-03 03:59:00,1798E-3,5C000000,-0724,0835,12286,025.5,045.4,0.481,743.1,01.18,0.508
2015-05-03 04:00:00,1587E-3,5C000000,-0724,0833,12209,025.5,045.4,0.481,743.1,01.18,0.508
2015-05-03 04:01:00,1859E-3,5C000000,-0724,0833,12055,025.5,045.4,0.481,743.1,01.18,0.508
2015-05-03 04:02:00,1713E-3,5C000000,-0724,0833,12114,025.5,045.4,0.481,743.1,01.18,0.508
2015-05-03 04:03:00,1797E-3,5C000000,-0724,0833,12154,025.5,045.4,0.481,743.1,01.18,0.508
2015-05-03 04:04:00,1731E-3,5C000000,-0724,0833,12045,025.5,045.4,0.481,743.1,01.18,0.508
2015-05-03 04:05:00,1740E-3,5C000000,-0724,0833,12143,025.5,045.4,0.481,743.1,01.18,0.508
2015-05-03 04:06:00,1768E-3,5C000000,-0724,0833,12205,025.5,045.4,0.481,743.0,01.18,0.508
2015-05-03 04:07:00,1795E-3,5C000000,-0724,0833,12225,025.5,045.4,0.481,743.1,01.18,0.508
2015-05-03 04:08:00,1754E-3,5C000000,-0724,0832,12135,025.5,045.4,0.482,743.0,01.18,0.508
2015-05-03 04:09:00,1837E-3,5C000000,-0724,0832,12238,025.5,045.4,0.481,743.0,01.18,0.508
2015-05-03 04:10:00,1778E-3,5C000000,-0724,0833,12097,025.5,045.4,0.481,743.0,01.18,0.508
2015-05-03 04:11:00,1746E-3,5C000000,-0724,0833,12139,025.5,045.4,0.481,743.0,01.18,0.508
2015-05-03 04:12:00,1739E-3,5C000000,-0724,0833,12195,025.5,045.4,0.481,743.0,01.18,0.508
2015-05-03 04:13:00,1683E-3,5C000000,-0724,0832,12123,025.5,045.4,0.482,743.0,01.18,0.508
2015-05-03 04:14:00,1861E-3,5C000000,-0724,0833,12138,025.4,045.4,0.481,743.0,01.18,0.508
2015-05-03 04:15:00,1611E-3,5C000000,-0724,0833,12161,025.4,045.4,0.481,743.0,01.18,0.508
2015-05-03 04:16:00,1671E-3,5C000000,-0724,0833,12295,025.4,045.4,0.481,743.0,01.18,0.508
2015-05-03 04:17:00,1835E-3,5C000000,-0724,0832,12298,025.4,045.4,0.482,743.0,01.18,0.508
2015-05-03 04:18:00,1858E-3,5C000000,-0724,0833,12124,025.4,045.4,0.481,743.0,01.18,0.508
2015-05-03 04:19:00,1691E-3,5C000000,-0724,0834,12223,025.4,045.4,0.481,743.0,01.18,0.508
2015-05-03 04:20:00,1715E-3,5C000000,-0724,0834,11983,025.4,045.4,0.481,743.0,01.18,0.508